User: anonymous   Login
Location: Caltech
(34.1382°N, 118.1253°W)
Time: 15:18:45
(UTC-07:00)
Language:

Cosmos 44 Rocket - Orbit

View from above orbital plane
View from above orbital plane
View from above satellite
View from above satellite

Ground track
Ground track

The orbit data is extracted from the following two-line orbital elements,

1   877U 64053B   15243.86332066 -.00000030 +00000-0 +18837-4 0  9994
2   877 065.0781 046.9857 0066424 353.3542 006.6668 14.59148999705909
Epoch (UTC): 31 August 2015 20:43:10
Eccentricity: 0.0066424
inclination: 65.0781°
perigee height: 649 km
apogee height: 743 km
right ascension of ascending node: 46.9857°
argument of perigee: 353.3542°
revolutions per day: 14.59148999
mean anomaly at epoch: 6.6668°
orbit number at epoch: 70590

The dashed part of the orbit path shows where the satellite is in the earth's shadow,  

DLR